Zurück zum Katalog

FRONTIERSAT

AktivAmateurfunkSSO
NORAD 69015·PAYLOAD·🇨🇦 Canada

Gestartet May 3, 2026 von Vandenberg Space Force Base

Loading…

Nächste Überflüge (nächste 24 Stunden)

TLE

AktuellSource: Space-Track

Epoche: Sep 13, 2026, 15:58 UTC

1 69015U 26100AM  26256.66542355  .00006397  00000-0  27543-3 0  9996
2 69015  97.3870 153.0794 0009952  91.9150 268.3226 15.22903365 20283

Verfolge FRONTIERSAT in Echtzeit mit AllMySat

Download on the App Store